| time (UTC) | temp F | wind direction | speed knots | gust knots | rain 1hr in | rain 24hr in | rain mn in | humidity % | barometer mb |
| 20260507060922 | 47 | 285 | 0.9 | 0.9 | 0.00 | 0.00 | 0.00 | 95 | 1007.0 |
| 20260507060419 | 47 | 327 | 0.0 | 0.9 | 0.00 | 0.00 | 0.00 | 95 | 1007.0 |
| 20260507055916 | 47 | 140 | 0.9 | 0.9 | 0.00 | 0.00 | 0.00 | 95 | 1006.8 |
| 20260507055410 | 47 | 312 | 0.0 | 0.0 | 0.00 | 0.00 | 0.00 | 95 | 1006.9 |
| 20260507054902 | 47 | 338 | 0.0 | 0.0 | 0.00 | 0.00 | 0.00 | 95 | 1007.0 |
| 20260507054358 | 47 | 312 | 1.7 | 1.7 | 0.00 | 0.00 | 0.00 | 94 | 1006.9 |
| 20260507053855 | 47 | 297 | 1.7 | 2.6 | 0.00 | 0.00 | 0.00 | 94 | 1007.0 |
| 20260507053353 | 48 | 309 | 0.9 | 1.7 | 0.00 | 0.00 | 0.00 | 93 | 1007.0 |
| 20260507052852 | 48 | 320 | 0.9 | 0.9 | 0.00 | 0.00 | 0.00 | 93 | 1007.2 |
| 20260507052348 | 48 | 236 | 2.6 | 2.6 | 0.00 | 0.00 | 0.00 | 93 | 1006.9 |
| 20260507051846 | 48 | 328 | 0.9 | 0.9 | 0.00 | 0.00 | 0.00 | 93 | 1006.9 |
| 20260507051343 | 48 | 314 | 1.7 | 1.7 | 0.00 | 0.00 | 0.00 | 93 | 1007.0 |
| 20260507050834 | 48 | 296 | 0.9 | 0.9 | 0.00 | 0.00 | 0.00 | 93 | 1006.9 |
| 20260507050330 | 48 | 299 | 3.5 | 3.5 | 0.00 | 0.00 | 0.00 | 93 | 1006.9 |
| 20260507045827 | 48 | 332 | 0.9 | 1.7 | 0.00 | 0.00 | 0.00 | 93 | 1007.0 |
| 20260507045324 | 48 | 299 | 2.6 | 3.5 | 0.00 | 0.00 | 0.00 | 93 | 1007.3 |
| 20260507044821 | 48 | 334 | 1.7 | 1.7 | 0.00 | 0.00 | 0.00 | 93 | 1007.0 |
| 20260507044318 | 48 | 348 | 1.7 | 2.6 | 0.00 | 0.00 | 0.00 | 93 | 1006.9 |
| 20260507043814 | 48 | 351 | 1.7 | 1.7 | 0.00 | 0.00 | 0.00 | 93 | 1006.9 |
| 20260507043310 | 48 | 329 | 0.9 | 0.9 | 0.00 | 0.00 | 0.00 | 94 | 1007.0 |
| 20260507042807 | 48 | 331 | 1.7 | 1.7 | 0.00 | 0.00 | 0.00 | 94 | 1007.0 |
| 20260507042306 | 48 | 238 | 0.9 | 0.9 | 0.00 | 0.00 | 0.00 | 94 | 1006.8 |
| 20260507041800 | 48 | 295 | 1.7 | 1.7 | 0.00 | 0.00 | 0.00 | 95 | 1006.5 |
| 20260507041256 | 48 | 280 | 3.5 | 3.5 | 0.00 | 0.00 | 0.00 | 94 | 1006.5 |
| 20260507040753 | 48 | 287 | 1.7 | 1.7 | 0.00 | 0.00 | 0.00 | 95 | 1006.0 |
| 20260507040249 | 48 | 30 | 0.9 | 0.9 | 0.00 | 0.00 | 0.00 | 95 | 1005.9 |
| 20260507035745 | 48 | 16 | 1.7 | 2.6 | 0.00 | 0.42 | 0.42 | 95 | 1005.7 |
| 20260507035241 | 48 | 326 | 1.7 | 1.7 | 0.00 | 0.42 | 0.42 | 94 | 1005.9 |
| 20260507034739 | 48 | 329 | 3.5 | 3.5 | 0.00 | 0.42 | 0.42 | 94 | 1006.6 |
| 20260507034235 | 48 | 277 | 1.7 | 1.7 | 0.00 | 0.42 | 0.42 | 95 | 1007.0 |
| 20260507033734 | 48 | 307 | 1.7 | 1.7 | 0.00 | 0.42 | 0.42 | 95 | 1007.1 |
| 20260507033231 | 48 | 308 | 0.9 | 0.9 | 0.00 | 0.42 | 0.42 | 95 | 1006.9 |
| 20260507032728 | 48 | 326 | 0.9 | 0.9 | 0.00 | 0.42 | 0.42 | 96 | 1006.9 |
| 20260507032224 | 48 | 327 | 0.0 | 0.0 | 0.00 | 0.42 | 0.42 | 96 | 1007.0 |
| 20260507031721 | 48 | 36 | 2.6 | 2.6 | 0.00 | 0.42 | 0.42 | 96 | 1006.9 |
| 20260507031217 | 48 | 21 | 3.5 | 3.5 | 0.00 | 0.42 | 0.42 | 96 | 1006.8 |
| 20260507030714 | 48 | 323 | 0.9 | 1.7 | 0.00 | 0.42 | 0.42 | 96 | 1006.7 |
| 20260507030212 | 48 | 349 | 0.9 | 1.7 | 0.00 | 0.42 | 0.42 | 96 | 1006.5 |
| 20260507025709 | 48 | 9 | 1.7 | 1.7 | 0.00 | 0.42 | 0.42 | 96 | 1006.6 |
| 20260507025206 | 48 | 308 | 0.9 | 0.9 | 0.00 | 0.42 | 0.42 | 96 | 1006.8 |
| 20260507024704 | 48 | 328 | 0.0 | 0.0 | 0.00 | 0.42 | 0.42 | 96 | 1006.7 |
| 20260507024201 | 48 | 39 | 2.6 | 2.6 | 0.00 | 0.42 | 0.42 | 97 | 1006.8 |
| 20260507023656 | 48 | 11 | 0.0 | 0.0 | 0.00 | 0.42 | 0.42 | 97 | 1006.2 |
| 20260507023154 | 48 | 314 | 0.9 | 0.9 | 0.00 | 0.42 | 0.42 | 97 | 1006.2 |
| 20260507022651 | 48 | 334 | 2.6 | 2.6 | 0.00 | 0.42 | 0.42 | 97 | 1006.7 |
| 20260507022146 | 49 | 341 | 0.9 | 1.7 | 0.00 | 0.42 | 0.42 | 97 | 1006.8 |
| 20260507021643 | 49 | 291 | 1.7 | 1.7 | 0.00 | 0.42 | 0.42 | 97 | 1006.8 |
| 20260507021138 | 49 | 22 | 0.9 | 0.9 | 0.00 | 0.42 | 0.42 | 97 | 1006.6 |
| 20260507020637 | 49 | 348 | 0.9 | 0.9 | 0.00 | 0.42 | 0.42 | 96 | 1006.7 |
| 20260507020133 | 49 | 14 | 1.7 | 1.7 | 0.00 | 0.42 | 0.42 | 96 | 1006.9 |
| 20260507015631 | 50 | 28 | 3.5 | 5.2 | 0.00 | 0.42 | 0.42 | 96 | 1006.8 |
| 20260507015128 | 50 | 324 | 0.9 | 1.7 | 0.00 | 0.42 | 0.42 | 95 | 1007.0 |
| 20260507014625 | 50 | 279 | 2.6 | 3.5 | 0.00 | 0.42 | 0.42 | 95 | 1007.1 |
| 20260507014121 | 50 | 295 | 0.9 | 0.9 | 0.00 | 0.42 | 0.42 | 95 | 1007.3 |
| 20260507013618 | 50 | 312 | 4.3 | 6.1 | 0.00 | 0.42 | 0.42 | 94 | 1007.3 |
| 20260507013115 | 51 | 289 | 1.7 | 2.6 | 0.00 | 0.42 | 0.42 | 94 | 1006.8 |
| 20260507012612 | 51 | 275 | 1.7 | 2.6 | 0.00 | 0.42 | 0.42 | 94 | 1006.8 |
| 20260507012107 | 51 | 348 | 4.3 | 6.1 | 0.00 | 0.42 | 0.42 | 93 | 1006.7 |
| 20260507011606 | 51 | 321 | 5.2 | 7.8 | 0.00 | 0.42 | 0.42 | 93 | 1006.8 |
| 20260507011102 | 52 | 273 | 3.5 | 3.5 | 0.00 | 0.42 | 0.42 | 93 | 1006.9 |
| 20260507010556 | 52 | 312 | 2.6 | 2.6 | 0.00 | 0.42 | 0.42 | 93 | 1006.6 |
| 20260507010053 | 52 | 263 | 0.9 | 1.7 | 0.00 | 0.42 | 0.42 | 93 | 1006.6 |
| 20260507005550 | 52 | 320 | 1.7 | 2.6 | 0.00 | 0.42 | 0.42 | 94 | 1006.4 |
| 20260507005046 | 52 | 302 | 1.7 | 2.6 | 0.00 | 0.42 | 0.42 | 93 | 1006.4 |
| 20260507004543 | 52 | 299 | 1.7 | 2.6 | 0.00 | 0.42 | 0.42 | 93 | 1006.2 |
| 20260507004041 | 52 | 327 | 2.6 | 2.6 | 0.00 | 0.42 | 0.42 | 93 | 1006.2 |
| 20260507003537 | 52 | 264 | 1.7 | 1.7 | 0.00 | 0.42 | 0.42 | 94 | 1006.2 |
| 20260507003032 | 52 | 310 | 4.3 | 5.2 | 0.00 | 0.42 | 0.42 | 94 | 1006.0 |
| 20260507002529 | 52 | 305 | 3.5 | 5.2 | 0.00 | 0.42 | 0.42 | 94 | 1005.9 |
| 20260507002025 | 52 | 291 | 1.7 | 1.7 | 0.00 | 0.42 | 0.42 | 94 | 1005.9 |
| 20260507001521 | 52 | 305 | 0.9 | 1.7 | 0.00 | 0.42 | 0.42 | 95 | 1005.7 |
| 20260507001019 | 52 | 307 | 0.9 | 1.7 | 0.00 | 0.42 | 0.42 | 95 | 1005.5 |
| 20260507000515 | 53 | 305 | 5.2 | 7.0 | 0.00 | 0.42 | 0.42 | 96 | 1005.4 |
| 20260507000011 | 53 | 313 | 3.5 | 3.5 | 0.00 | 0.42 | 0.42 | 97 | 1005.4 |
| 20260506235508 | 53 | 319 | 3.5 | 3.5 | 0.00 | 0.42 | 0.42 | 97 | 1005.4 |
| 20260506235004 | 54 | 287 | 1.7 | 3.5 | 0.00 | 0.42 | 0.42 | 98 | 1005.2 |
| 20260506234501 | 54 | 325 | 2.6 | 3.5 | 0.00 | 0.42 | 0.42 | 98 | 1005.2 |
| 20260506233958 | 55 | 299 | 1.7 | 2.6 | 0.00 | 0.42 | 0.42 | 98 | 1005.2 |
| 20260506233455 | 55 | 275 | 4.3 | 6.1 | 0.00 | 0.42 | 0.42 | 97 | 1004.8 |
| 20260506232951 | 55 | 312 | 2.6 | 3.5 | 0.00 | 0.42 | 0.42 | 96 | 1004.7 |
| 20260506232447 | 55 | 295 | 6.1 | 7.0 | 0.00 | 0.42 | 0.42 | 96 | 1004.7 |
| 20260506231938 | 56 | 317 | 1.7 | 2.6 | 0.00 | 0.42 | 0.42 | 96 | 1004.6 |
| 20260506231436 | 56 | 352 | 3.5 | 5.2 | 0.00 | 0.42 | 0.42 | 95 | 1004.6 |
| 20260506230933 | 57 | 298 | 5.2 | 7.8 | 0.00 | 0.42 | 0.42 | 95 | 1004.5 |
| 20260506230429 | 57 | 311 | 4.3 | 7.0 | 0.00 | 0.42 | 0.42 | 95 | 1004.4 |
| 20260506225925 | 59 | 304 | 5.2 | 7.8 | 0.00 | 0.42 | 0.42 | 94 | 1004.3 |
| 20260506225423 | 60 | 301 | 4.3 | 5.2 | 0.00 | 0.42 | 0.42 | 94 | 1004.0 |
| 20260506224920 | 60 | 227 | 10.4 | 12.2 | 0.00 | 0.42 | 0.42 | 94 | 1004.2 |
| 20260506224417 | 60 | 219 | 2.6 | 2.6 | 0.00 | 0.42 | 0.42 | 95 | 1004.2 |
| 20260506223913 | 60 | 334 | 1.7 | 1.7 | 0.00 | 0.42 | 0.42 | 95 | 1003.7 |
| 20260506223409 | 60 | 288 | 5.2 | 7.0 | 0.00 | 0.42 | 0.42 | 94 | 1004.0 |
| 20260506222906 | 60 | 314 | 4.3 | 6.1 | 0.00 | 0.42 | 0.42 | 95 | 1004.1 |
| 20260506222402 | 60 | 284 | 3.5 | 5.2 | 0.00 | 0.42 | 0.42 | 95 | 1004.0 |
| 20260506221900 | 60 | 255 | 4.3 | 5.2 | 0.00 | 0.42 | 0.42 | 97 | 1003.8 |
| 20260506221357 | 60 | 305 | 3.5 | 6.1 | 0.00 | 0.42 | 0.42 | 99 | 1003.8 |
| 20260506220854 | 60 | 336 | 0.9 | 1.7 | 0.00 | 0.42 | 0.42 | 99 | 1003.9 |
| 20260506220350 | 60 | 197 | 0.9 | 0.9 | 0.00 | 0.42 | 0.42 | 99 | 1003.9 |
| 20260506215847 | 60 | 212 | 1.7 | 1.7 | 0.00 | 0.42 | 0.42 | 99 | 1003.5 |
| 20260506215342 | 60 | 324 | 1.7 | 1.7 | 0.00 | 0.42 | 0.42 | 99 | 1003.8 |
| 20260506214838 | 60 | 273 | 0.9 | 1.7 | 0.00 | 0.42 | 0.42 | 99 | 1003.7 |
| 20260506214335 | 60 | 282 | 1.7 | 2.6 | 0.00 | 0.42 | 0.42 | 99 | 1003.3 |
| 20260506213834 | 60 | 279 | 1.7 | 2.6 | 0.00 | 0.42 | 0.42 | 98 | 1003.4 |
| 20260506213331 | 60 | 296 | 2.6 | 3.5 | 0.00 | 0.42 | 0.42 | 98 | 1003.1 |
| 20260506212828 | 60 | 270 | 5.2 | 7.0 | 0.00 | 0.42 | 0.42 | 98 | 1003.2 |
| 20260506212323 | 60 | 184 | 2.6 | 2.6 | 0.00 | 0.42 | 0.42 | 98 | 1003.2 |
| 20260506211819 | 60 | 7 | 0.0 | 0.9 | 0.00 | 0.42 | 0.42 | 99 | 1003.1 |
| 20260506211315 | 60 | 283 | 2.6 | 3.5 | 0.00 | 0.42 | 0.42 | 99 | 1003.1 |
| 20260506210813 | 60 | 249 | 0.9 | 1.7 | 0.00 | 0.42 | 0.42 | 99 | 1002.8 |
| 20260506210309 | 60 | 159 | 2.6 | 2.6 | 0.00 | 0.42 | 0.42 | 98 | 1002.9 |
| 20260506205806 | 61 | 281 | 1.7 | 2.6 | 0.00 | 0.42 | 0.42 | 98 | 1003.0 |
| 20260506205305 | 61 | 272 | 1.7 | 2.6 | 0.00 | 0.42 | 0.42 | 98 | 1003.1 |
| 20260506204758 | 61 | 299 | 0.9 | 0.9 | 0.00 | 0.42 | 0.42 | 98 | 1002.7 |
| 20260506204257 | 61 | 347 | 3.5 | 5.2 | 0.00 | 0.42 | 0.42 | 98 | 1002.9 |
| 20260506203754 | 60 | 287 | 2.6 | 3.5 | 0.00 | 0.42 | 0.42 | 99 | 1002.9 |
| 20260506203251 | 60 | 213 | 6.1 | 7.8 | 0.00 | 0.42 | 0.42 | 99 | 1002.8 |
| 20260506202748 | 60 | 289 | 2.6 | 2.6 | 0.00 | 0.42 | 0.42 | 99 | 1002.9 |
| 20260506202245 | 60 | 228 | 3.5 | 3.5 | 0.00 | 0.42 | 0.42 | 99 | 1002.8 |
| 20260506201741 | 60 | 298 | 5.2 | 7.8 | 0.00 | 0.42 | 0.42 | 99 | 1002.7 |
| 20260506201238 | 60 | 245 | 4.3 | 6.1 | 0.00 | 0.42 | 0.42 | 99 | 1002.5 |
| 20260506200735 | 59 | 318 | 0.9 | 0.9 | 0.00 | 0.42 | 0.42 | 99 | 1002.7 |
| 20260506200232 | 59 | 192 | 5.2 | 7.0 | 0.00 | 0.42 | 0.42 | 99 | 1002.8 |
| 20260506195728 | 59 | 217 | 1.7 | 2.6 | 0.00 | 0.42 | 0.42 | 99 | 1002.9 |
| 20260506195225 | 59 | 288 | 1.7 | 3.5 | 0.00 | 0.42 | 0.42 | 99 | 1003.0 |
| 20260506194722 | 59 | 290 | 6.1 | 7.8 | 0.00 | 0.42 | 0.42 | 99 | 1002.9 |
| 20260506194218 | 59 | 215 | 2.6 | 2.6 | 0.00 | 0.42 | 0.42 | 99 | 1003.0 |
| 20260506193717 | 59 | 107 | 3.5 | 3.5 | 0.00 | 0.42 | 0.42 | 99 | 1002.7 |
| 20260506193213 | 59 | 286 | 1.7 | 2.6 | 0.00 | 0.42 | 0.42 | 99 | 1002.9 |
| 20260506192710 | 59 | 195 | 1.7 | 2.6 | 0.00 | 0.42 | 0.42 | 99 | 1002.9 |
| 20260506192206 | 59 | 300 | 1.7 | 2.6 | 0.00 | 0.42 | 0.42 | 99 | 1003.1 |
| 20260506191657 | 59 | 210 | 1.7 | 2.6 | 0.00 | 0.42 | 0.42 | 99 | 1003.0 |
| 20260506191153 | 59 | 202 | 3.5 | 3.5 | 0.00 | 0.42 | 0.42 | 99 | 1003.0 |
| 20260506190651 | 59 | 310 | 1.7 | 2.6 | 0.00 | 0.42 | 0.42 | 99 | 1003.1 |
| 20260506190147 | 59 | 306 | 0.9 | 1.7 | 0.00 | 0.42 | 0.42 | 99 | 1003.4 |
| 20260506185644 | 59 | 209 | 2.6 | 3.5 | 0.00 | 0.42 | 0.42 | 99 | 1003.2 |
| 20260506185140 | 59 | 196 | 1.7 | 1.7 | 0.00 | 0.42 | 0.42 | 99 | 1003.1 |
| 20260506184638 | 59 | 246 | 1.7 | 1.7 | 0.00 | 0.42 | 0.42 | 99 | 1003.3 |
| 20260506184135 | 59 | 6 | 0.0 | 0.0 | 0.00 | 0.42 | 0.42 | 99 | 1003.2 |
| 20260506183632 | 58 | 358 | 0.0 | 0.0 | 0.00 | 0.42 | 0.42 | 99 | 1003.2 |
| 20260506183128 | 59 | 95 | 0.9 | 1.7 | 0.00 | 0.42 | 0.42 | 99 | 1003.3 |
| 20260506182626 | 59 | 249 | 0.9 | 1.7 | 0.00 | 0.42 | 0.42 | 99 | 1003.2 |
| 20260506182122 | 58 | 289 | 0.0 | 0.0 | 0.00 | 0.42 | 0.42 | 99 | 1003.3 |
| 20260506181620 | 58 | 285 | 0.9 | 0.9 | 0.07 | 0.42 | 0.42 | 99 | 1003.4 |
| 20260506181117 | 58 | 252 | 0.9 | 0.9 | 0.07 | 0.42 | 0.42 | 99 | 1003.5 |
| 20260506180614 | 58 | 285 | 0.9 | 1.7 | 0.05 | 0.41 | 0.41 | 99 | 1003.7 |
| 20260506180110 | 58 | 265 | 3.5 | 3.5 | 0.05 | 0.41 | 0.41 | 99 | 1003.5 |
| 20260506175607 | 58 | 217 | 0.0 | 0.0 | 0.07 | 0.40 | 0.40 | 99 | 1003.5 |
| 20260506175103 | 58 | 232 | 1.7 | 1.7 | 0.07 | 0.40 | 0.40 | 99 | 1003.8 |
| 20260506174602 | 58 | 36 | 0.9 | 0.9 | 0.05 | 0.39 | 0.39 | 99 | 1003.7 |
| 20260506174057 | 57 | 220 | 2.6 | 2.6 | 0.05 | 0.39 | 0.39 | 99 | 1003.4 |
| 20260506173555 | 57 | 283 | 0.9 | 0.9 | 0.05 | 0.39 | 0.39 | 99 | 1003.7 |
| 20260506173052 | 57 | 233 | 3.5 | 5.2 | 0.07 | 0.38 | 0.38 | 99 | 1003.5 |
| 20260506172549 | 57 | 281 | 0.0 | 0.0 | 0.07 | 0.38 | 0.38 | 99 | 1003.5 |
| 20260506172040 | 57 | 190 | 1.7 | 2.6 | 0.00 | 0.37 | 0.37 | 99 | 1003.7 |
| 20260506171537 | 57 | 242 | 3.5 | 3.5 | 0.05 | 0.37 | 0.37 | 99 | 1003.8 |
| 20260506171035 | 57 | 320 | 0.0 | 0.0 | 0.12 | 0.37 | 0.37 | 99 | 1004.0 |
| 20260506170532 | 57 | 276 | 0.9 | 1.7 | 0.12 | 0.36 | 0.36 | 99 | 1003.8 |
| 20260506170030 | 57 | 190 | 1.7 | 1.7 | 0.05 | 0.35 | 0.35 | 99 | 1003.7 |
| 20260506165528 | 57 | 212 | 1.7 | 1.7 | 0.00 | 0.34 | 0.34 | 99 | 1004.0 |
| 20260506165024 | 57 | 309 | 0.0 | 0.9 | 0.00 | 0.34 | 0.34 | 99 | 1004.0 |
| 20260506164521 | 57 | 179 | 2.6 | 3.5 | 0.00 | 0.34 | 0.34 | 99 | 1004.0 |
| 20260506164018 | 57 | 304 | 6.1 | 7.8 | 0.00 | 0.34 | 0.34 | 99 | 1004.0 |
| 20260506163514 | 57 | 199 | 3.5 | 3.5 | 0.07 | 0.34 | 0.34 | 99 | 1003.9 |
| 20260506163010 | 57 | 185 | 0.9 | 1.7 | 0.07 | 0.34 | 0.34 | 99 | 1003.9 |
| 20260506162506 | 57 | 217 | 2.6 | 3.5 | 0.00 | 0.33 | 0.33 | 99 | 1004.0 |
| 20260506162003 | 57 | 170 | 2.6 | 3.5 | 0.00 | 0.33 | 0.33 | 99 | 1003.7 |
| 20260506161500 | 57 | 209 | 3.5 | 3.5 | 0.00 | 0.33 | 0.33 | 99 | 1003.8 |
| 20260506160952 | 57 | 161 | 1.7 | 1.7 | 0.00 | 0.33 | 0.33 | 99 | 1004.0 |
| 20260506160449 | 57 | 327 | 0.9 | 1.7 | 0.00 | 0.33 | 0.33 | 99 | 1004.0 |
| 20260506155947 | 57 | 59 | 3.5 | 3.5 | 0.00 | 0.33 | 0.33 | 99 | 1003.5 |
| 20260506155444 | 57 | 152 | 1.7 | 1.7 | 0.00 | 0.33 | 0.33 | 99 | 1003.9 |
| 20260506153616 | 57 | 177 | 3.5 | 3.5 | 0.05 | 0.33 | 0.33 | 99 | 1003.4 |
| 20260506153114 | 57 | 190 | 4.3 | 7.0 | 0.07 | 0.32 | 0.32 | 99 | 1003.7 |
| 20260506152611 | 57 | 78 | 7.8 | 13.0 | 0.12 | 0.32 | 0.32 | 99 | 1003.9 |
| 20260506152109 | 57 | 206 | 3.5 | 3.5 | 0.05 | 0.31 | 0.31 | 99 | 1004.0 |
| 20260506151607 | 57 | 323 | 2.6 | 5.2 | 0.12 | 0.31 | 0.31 | 99 | 1003.9 |
| 20260506151103 | 57 | 43 | 0.0 | 0.9 | 0.19 | 0.30 | 0.30 | 99 | 1004.0 |
| 20260506150600 | 57 | 186 | 3.5 | 5.2 | 0.17 | 0.28 | 0.28 | 99 | 1004.0 |
| 20260506150057 | 57 | 252 | 1.7 | 1.7 | 0.19 | 0.27 | 0.27 | 99 | 1004.1 |
| 20260506145554 | 57 | 236 | 5.2 | 7.0 | 0.24 | 0.26 | 0.26 | 99 | 1004.6 |
| 20260506145051 | 57 | 290 | 0.9 | 1.7 | 0.12 | 0.24 | 0.24 | 99 | 1004.4 |
| 20260506144548 | 57 | 171 | 3.5 | 5.2 | 0.05 | 0.22 | 0.22 | 99 | 1004.2 |
| 20260506144045 | 57 | 179 | 1.7 | 2.6 | 0.17 | 0.22 | 0.22 | 99 | 1003.9 |
| 20260506143543 | 57 | 238 | 1.7 | 2.6 | 0.24 | 0.21 | 0.21 | 99 | 1004.0 |
| 20260506143041 | 57 | 298 | 1.7 | 2.6 | 0.31 | 0.20 | 0.20 | 99 | 1003.8 |
| 20260506142538 | 57 | 204 | 0.0 | 0.9 | 0.14 | 0.17 | 0.17 | 99 | 1004.1 |
| 20260506142037 | 57 | 171 | 0.9 | 0.9 | 0.05 | 0.15 | 0.15 | 99 | 1004.1 |
| 20260506141534 | 57 | 296 | 3.5 | 3.5 | 0.12 | 0.15 | 0.15 | 99 | 1004.2 |
| 20260506141032 | 57 | 180 | 0.9 | 0.9 | 0.12 | 0.14 | 0.14 | 99 | 1004.2 |
| 20260506140529 | 57 | 246 | 4.3 | 6.1 | 0.05 | 0.13 | 0.13 | 99 | 1004.0 |
| 20260506140026 | 57 | 200 | 2.6 | 2.6 | 0.07 | 0.12 | 0.12 | 99 | 1004.0 |
| 20260506135523 | 57 | 227 | 1.7 | 1.7 | 0.12 | 0.12 | 0.12 | 99 | 1004.1 |
| 20260506135019 | 57 | 203 | 2.6 | 2.6 | 0.05 | 0.11 | 0.11 | 99 | 1004.4 |
| 20260506134516 | 57 | 177 | 5.2 | 6.1 | 0.00 | 0.10 | 0.10 | 99 | 1004.7 |
| 20260506134012 | 57 | 147 | 5.2 | 7.0 | 0.00 | 0.10 | 0.10 | 99 | 1004.4 |
| 20260506133509 | 57 | 194 | 2.6 | 2.6 | 0.07 | 0.10 | 0.10 | 99 | 1004.2 |
| 20260506133006 | 57 | 229 | 1.7 | 1.7 | 0.07 | 0.10 | 0.10 | 99 | 1004.4 |
| 20260506132503 | 57 | 135 | 2.6 | 2.6 | 0.07 | 0.10 | 0.10 | 98 | 1004.4 |
| 20260506132000 | 57 | 163 | 1.7 | 2.6 | 0.05 | 0.09 | 0.09 | 98 | 1004.4 |
| 20260506131457 | 57 | 148 | 1.7 | 1.7 | 0.05 | 0.09 | 0.09 | 99 | 1004.3 |
| 20260506130954 | 57 | 353 | 1.7 | 1.7 | 0.07 | 0.08 | 0.08 | 98 | 1004.6 |
| 20260506130450 | 57 | 203 | 1.7 | 2.6 | 0.12 | 0.08 | 0.08 | 98 | 1004.8 |
| 20260506125948 | 57 | 88 | 0.9 | 0.9 | 0.12 | 0.07 | 0.07 | 98 | 1004.8 |
| 20260506125446 | 57 | 206 | 2.6 | 3.5 | 0.12 | 0.06 | 0.06 | 97 | 1004.6 |
| 20260506124944 | 57 | 126 | 1.7 | 2.6 | 0.12 | 0.05 | 0.05 | 97 | 1004.8 |
| 20260506124441 | 57 | 178 | 2.6 | 2.6 | 0.07 | 0.04 | 0.04 | 96 | 1004.8 |
| 20260506123939 | 58 | 156 | 0.9 | 1.7 | 0.07 | 0.03 | 0.03 | 96 | 1005.0 |
| 20260506123437 | 58 | 18 | 0.0 | 0.9 | 0.07 | 0.03 | 0.03 | 95 | 1004.9 |
| 20260506122934 | 58 | 330 | 0.0 | 0.0 | 0.05 | 0.02 | 0.02 | 94 | 1004.9 |
| 20260506122431 | 58 | 314 | 0.9 | 0.9 | 0.05 | 0.02 | 0.02 | 93 | 1004.8 |
| 20260506121930 | 58 | 256 | 1.7 | 1.7 | 0.07 | 0.01 | 0.01 | 91 | 1005.1 |
| 20260506121426 | 59 | 281 | 1.7 | 2.6 | 0.07 | 0.01 | 0.01 | 91 | 1004.7 |
| 20260506120923 | 59 | 259 | 2.6 | 2.6 | 0.07 | 0.01 | 0.01 | 90 | 1004.9 |
| 20260506120420 | 59 | 227 | 1.7 | 2.6 | 0.00 | 0.00 | 0.00 | 89 | 1004.6 |
| 20260506115917 | 59 | 264 | 0.9 | 0.9 | 0.00 | 0.00 | 0.00 | 89 | 1004.5 |
| 20260506115415 | 59 | 214 | 1.7 | 2.6 | 0.00 | 0.00 | 0.00 | 88 | 1004.6 |
| 20260506114914 | 59 | 292 | 0.9 | 0.9 | 0.00 | 0.00 | 0.00 | 88 | 1004.6 |
| 20260506114411 | 59 | 25 | 1.7 | 2.6 | 0.00 | 0.00 | 0.00 | 87 | 1004.4 |
| 20260506113910 | 59 | 203 | 2.6 | 2.6 | 0.00 | 0.00 | 0.00 | 87 | 1004.5 |
| 20260506113407 | 59 | 196 | 1.7 | 1.7 | 0.00 | 0.00 | 0.00 | 86 | 1004.5 |
| 20260506112903 | 59 | 359 | 0.0 | 0.0 | 0.00 | 0.00 | 0.00 | 86 | 1004.3 |
| 20260506112401 | 59 | 271 | 0.0 | 0.9 | 0.00 | 0.00 | 0.00 | 86 | 1004.4 |
| 20260506111858 | 59 | 165 | 0.0 | 0.9 | 0.00 | 0.00 | 0.00 | 85 | 1004.3 |
| 20260506111356 | 59 | 99 | 0.9 | 0.9 | 0.00 | 0.00 | 0.00 | 84 | 1004.4 |
| 20260506110853 | 60 | 284 | 0.0 | 0.9 | 0.00 | 0.00 | 0.00 | 83 | 1004.4 |
| 20260506110350 | 60 | 194 | 1.7 | 2.6 | 0.00 | 0.00 | 0.00 | 83 | 1004.3 |
| 20260506105847 | 60 | 203 | 1.7 | 2.6 | 0.00 | 0.00 | 0.00 | 81 | 1004.5 |
| 20260506105343 | 60 | 137 | 1.7 | 1.7 | 0.00 | 0.00 | 0.00 | 80 | 1004.1 |
| 20260506104841 | 60 | 157 | 1.7 | 1.7 | 0.00 | 0.00 | 0.00 | 79 | 1004.4 |
| 20260506104338 | 61 | 110 | 0.9 | 0.9 | 0.00 | 0.00 | 0.00 | 77 | 1004.1 |
| 20260506103836 | 61 | 338 | 0.9 | 0.9 | 0.00 | 0.00 | 0.00 | 77 | 1004.2 |
| 20260506103333 | 61 | 60 | 0.0 | 0.0 | 0.00 | 0.00 | 0.00 | 77 | 1004.0 |
| 20260506102831 | 60 | 233 | 0.0 | 0.9 | 0.00 | 0.00 | 0.00 | 78 | 1003.8 |
| 20260506102328 | 61 | 232 | 2.6 | 3.5 | 0.00 | 0.00 | 0.00 | 75 | 1003.8 |
| 20260506101825 | 61 | 161 | 0.9 | 1.7 | 0.00 | 0.00 | 0.00 | 75 | 1003.7 |
| 20260506101321 | 61 | 245 | 1.7 | 1.7 | 0.00 | 0.00 | 0.00 | 75 | 1003.8 |
| 20260506100820 | 61 | 3 | 1.7 | 1.7 | 0.00 | 0.00 | 0.00 | 75 | 1003.7 |
| 20260506100318 | 62 | 88 | 1.7 | 1.7 | 0.00 | 0.00 | 0.00 | 75 | 1003.5 |
| 20260506095816 | 62 | 197 | 1.7 | 1.7 | 0.00 | 0.00 | 0.00 | 73 | 1003.9 |
| 20260506095312 | 62 | 240 | 1.7 | 2.6 | 0.00 | 0.00 | 0.00 | 73 | 1003.7 |
| 20260506094809 | 62 | 241 | 0.9 | 1.7 | 0.00 | 0.00 | 0.00 | 71 | 1003.9 |
| 20260506094308 | 62 | 124 | 0.9 | 1.7 | 0.00 | 0.00 | 0.00 | 71 | 1003.9 |
| 20260506093806 | 62 | 272 | 0.9 | 0.9 | 0.00 | 0.00 | 0.00 | 70 | 1003.9 |
| 20260506093302 | 62 | 223 | 3.5 | 3.5 | 0.00 | 0.00 | 0.00 | 70 | 1003.7 |
| 20260506092801 | 62 | 266 | 0.9 | 1.7 | 0.00 | 0.00 | 0.00 | 70 | 1003.9 |
| 20260506092258 | 62 | 185 | 0.9 | 1.7 | 0.00 | 0.00 | 0.00 | 70 | 1004.1 |
| 20260506091755 | 62 | 144 | 2.6 | 3.5 | 0.00 | 0.00 | 0.00 | 69 | 1004.0 |
| 20260506091252 | 63 | 197 | 3.5 | 5.2 | 0.00 | 0.00 | 0.00 | 68 | 1004.1 |
| 20260506090750 | 62 | 295 | 0.9 | 1.7 | 0.00 | 0.00 | 0.00 | 69 | 1003.9 |
| 20260506090247 | 62 | 215 | 4.3 | 5.2 | 0.00 | 0.00 | 0.00 | 68 | 1004.1 |
| 20260506085744 | 62 | 151 | 1.7 | 1.7 | 0.00 | 0.00 | 0.00 | 68 | 1004.1 |
| 20260506085240 | 63 | 148 | 1.7 | 1.7 | 0.00 | 0.00 | 0.00 | 67 | 1004.0 |
| 20260506084736 | 62 | 170 | 2.6 | 2.6 | 0.00 | 0.00 | 0.00 | 67 | 1004.1 |
| 20260506084233 | 62 | 160 | 1.7 | 2.6 | 0.00 | 0.00 | 0.00 | 67 | 1004.3 |
| 20260506083730 | 62 | 171 | 1.7 | 1.7 | 0.00 | 0.00 | 0.00 | 67 | 1004.3 |
| 20260506083228 | 62 | 159 | 0.9 | 1.7 | 0.00 | 0.00 | 0.00 | 67 | 1004.4 |
| 20260506082725 | 62 | 162 | 1.7 | 1.7 | 0.00 | 0.00 | 0.00 | 66 | 1004.0 |
| 20260506082220 | 61 | 226 | 1.7 | 2.6 | 0.00 | 0.00 | 0.00 | 68 | 1004.2 |
| 20260506081718 | 61 | 288 | 0.9 | 1.7 | 0.00 | 0.00 | 0.00 | 68 | 1004.2 |
| 20260506081215 | 62 | 322 | 0.0 | 0.9 | 0.00 | 0.00 | 0.00 | 66 | 1004.2 |
| 20260506080713 | 62 | 317 | 0.0 | 0.0 | 0.00 | 0.00 | 0.00 | 64 | 1004.1 |
| 20260506080204 | 62 | 319 | 0.0 | 0.9 | 0.00 | 0.00 | 0.00 | 64 | 1004.2 |
| 20260506073148 | 61 | 5 | 0.0 | 0.9 | 0.00 | 0.00 | 0.00 | 66 | 1004.3 |
| 20260506072644 | 62 | 22 | 0.0 | 0.0 | 0.00 | 0.00 | 0.00 | 64 | 1004.4 |
| 20260506072143 | 61 | 296 | 0.9 | 0.9 | 0.00 | 0.00 | 0.00 | 62 | 1004.5 |
| 20260506071640 | 62 | 335 | 0.0 | 0.0 | 0.00 | 0.00 | 0.00 | 63 | 1004.5 |
| 20260506071138 | 62 | 318 | 0.0 | 0.0 | 0.00 | 0.00 | 0.00 | 62 | 1004.5 |
| 20260506070634 | 63 | 329 | 0.0 | 0.0 | 0.00 | 0.00 | 0.00 | 60 | 1004.5 |
| 20260506070131 | 64 | 296 | 0.0 | 0.9 | 0.00 | 0.00 | 0.00 | 59 | 1004.6 |
| 20260506062109 | 64 | 161 | 1.7 | 2.6 | 0.00 | 0.00 | 0.00 | 56 | 1005.0 |
| 20260506061604 | 64 | 182 | 2.6 | 3.5 | 0.00 | 0.00 | 0.00 | 56 | 1005.2 |
| 20260506061102 | 64 | 153 | 1.7 | 1.7 | 0.00 | 0.00 | 0.00 | 57 | 1005.1 |